Theta_e
309 309 309 311 312 313 314 315 316 315 311 309 310 311 311 311 311 311 312 316 318 318 315 316 317 321 322 322 323 323 323 324 325 326 327 327 327 326 326 329 329 330 343 340 337
309 308 308 308 308 311 313 314 315 316 316 312 309 310 310 310 311 312 314 317 318 318 314 318 319 319 321 321 322 324 324 324 326 327 326 327 326 326 326 326 327 329 343 348 342
309 308 308 307 307 308 310 312 313 315 316 316 312 309 310 310 315 323 322 320 317 314 314 319 320 320 321 322 322 323 323 325 325 325 325 325 325 325 326 326 326 329 340 346 350
310 308 307 307 308 308 309 309 311 314 315 316 316 311 309 310 326 323 317 315 316 314 314 320 320 321 322 323 322 323 323 324 325 324 324 324 324 325 325 325 325 326 331 339 344
308 307 307 308 309 310 310 309 310 313 315 316 316 311 309 321 321 322 320 316 313 312 317 322 320 321 322 322 322 323 323 323 324 324 324 324 324 324 324 324 324 324 326 328 329
307 307 308 311 313 313 312 311 312 314 316 316 316 311 309 318 319 321 319 316 316 315 319 320 320 320 321 322 322 323 323 323 323 323 323 323 324 323 323 323 323 324 324 326 327
307 307 312 314 314 314 314 314 315 315 315 315 313 310 318 320 319 320 321 320 319 317 319 318 319 319 320 321 321 321 322 323 323 323 323 322 323 323 323 323 323 324 324 325 327
307 308 313 313 313 313 313 314 314 315 314 313 311 310 320 320 319 318 320 320 318 318 317 318 319 319 321 320 321 322 323 321 323 324 323 323 322 324 324 323 324 325 324 325 327
306 309 313 313 314 314 316 315 315 315 315 315 321 319 325 320 320 318 319 320 320 319 318 320 319 320 320 320 320 321 323 323 323 325 324 324 323 324 324 324 324 324 325 325 326
306 307 312 313 314 316 317 319 319 318 321 320 323 323 324 322 323 320 319 319 319 318 319 319 318 320 320 320 320 322 324 324 325 326 324 324 324 324 324 325 325 325 325 325 331
306 307 311 313 314 317 318 320 321 328 326 322 320 320 321 320 320 321 318 320 320 320 321 320 320 319 320 321 321 323 324 324 325 326 325 324 324 324 324 325 325 325 324 325 334
306 307 309 313 317 318 319 319 318 317 319 321 319 320 319 319 319 320 320 320 321 321 321 321 322 322 322 322 323 323 323 324 324 325 324 323 323 324 325 325 324 324 324 325 331
306 307 307 314 318 319 320 318 318 318 321 322 319 319 320 320 321 321 320 321 321 322 322 323 323 324 324 324 324 323 323 324 323 324 325 324 323 323 324 323 324 325 330 329 331
306 307 307 312 319 320 320 318 318 318 324 322 321 320 320 320 321 320 320 321 322 323 323 323 323 323 324 323 323 323 323 323 323 323 323 324 323 326 325 325 325 327 329 330 332
306 307 307 312 316 320 316 317 317 319 331 322 321 318 320 320 320 321 321 320 321 322 324 324 324 324 324 324 324 323 323 323 323 323 323 323 323 324 327 326 327 327 327 330 333
307 307 307 318 318 319 314 316 320 326 328 321 320 319 320 321 321 320 321 321 320 322 322 323 322 324 325 325 324 324 323 323 323 324 324 324 324 325 326 328 328 328 331 332 334
307 307 308 311 319 315 315 318 325 328 322 321 320 319 319 319 321 321 321 322 322 323 324 324 323 323 324 325 324 323 323 324 325 326 325 324 325 327 330 328 329 332 332 332 332
307 308 312 317 318 314 316 322 328 324 321 319 318 318 319 320 320 321 321 321 322 322 322 322 323 323 322 324 323 323 324 324 326 327 325 327 329 333 334 332 333 333 332 331 331
307 312 319 320 314 315 318 327 325 320 318 317 318 320 321 320 320 320 320 320 322 321 322 323 324 324 323 322 321 322 323 323 326 326 326 327 331 333 333 334 333 331 329 330 330
307 318 320 318 315 317 324 326 321 318 317 317 318 319 319 320 319 319 319 320 321 320 320 321 322 322 323 322 320 320 321 322 325 328 327 327 331 334 328 330 326 323 327 325 324
314 320 318 315 319 321 325 322 320 317 315 316 318 318 318 319 319 319 318 319 319 318 318 319 320 321 323 321 321 322 321 321 322 328 328 327 327 329 329 328 324 322 320 321 323
317 321 317 315 320 321 321 318 314 316 316 317 317 317 318 318 318 319 319 318 315 315 317 318 319 323 323 323 323 324 324 324 325 325 328 329 329 328 327 324 322 321 320 318 317
315 319 319 317 321 321 320 318 316 316 317 316 317 317 317 317 318 318 318 316 315 314 316 316 320 322 321 319 322 323 322 323 323 326 326 329 330 324 323 322 321 320 319 319 318
317 321 319 318 318 319 320 319 319 316 315 315 315 315 316 317 318 318 317 317 315 314 312 313 316 318 319 320 320 321 320 319 319 324 322 321 322 324 322 321 319 318 318 318 316
319 319 318 318 320 318 318 318 318 317 316 315 316 316 317 317 318 317 317 317 316 316 314 315 316 316 317 317 318 320 317 316 317 318 318 318 320 321 320 321 320 318 317 315 314
316 315 314 314 317 318 315 318 318 317 315 316 317 317 316 316 316 316 316 316 316 316 316 318 318 317 318 317 316 317 315 315 315 316 316 316 317 318 317 318 316 315 314 314 314
314 314 315 316 317 319 319 319 317 315 315 315 314 314 315 315 314 314 313 313 313 315 316 316 318 319 319 317 318 317 315 315 315 314 315 315 316 315 315 314 314 314 314 314 314
Wind_Speed
20 20 20 19 19 18 17 16 15 13 12 11 11 11 12 14 15 18 22 12 9 17 13 8 11 13 13 16 17 18 11 14 19 18 16 10 6 2 14 8 1 5 18 23 25
22 23 22 21 20 19 18 17 16 15 13 12 12 12 12 15 18 23 17 15 18 16 13 11 13 13 16 15 19 16 12 18 19 17 13 17 4 4 5 10 14 12 19 18 23
24 24 24 23 22 20 18 17 16 15 14 13 12 11 11 14 15 5 8 16 16 13 13 11 12 14 18 19 19 19 16 19 23 13 14 15 18 6 9 11 16 11 24 21 18
26 26 26 25 22 21 19 17 16 15 14 13 13 11 9 9 4 5 9 7 15 15 14 15 16 18 17 16 22 17 23 22 22 24 6 12 17 17 14 12 17 13 11 19 16
26 27 27 25 23 21 18 16 16 15 13 12 12 9 7 7 15 10 9 7 8 14 16 15 18 17 16 19 19 18 17 23 25 14 19 14 16 17 18 12 14 18 8 3 9
27 27 25 25 23 20 18 15 15 13 11 10 10 8 6 13 4 9 7 7 7 13 14 15 14 16 19 20 18 23 19 22 20 23 16 18 18 19 20 17 18 12 16 9 17
28 26 24 23 20 18 16 13 10 9 7 7 6 5 8 19 5 6 7 8 9 13 13 13 15 17 14 15 21 23 21 19 17 20 17 17 19 19 21 19 18 16 16 15 14
27 24 22 19 19 19 16 11 10 8 5 3 2 3 8 2 8 8 9 10 12 12 13 12 14 18 17 20 22 18 17 17 19 20 20 15 19 17 22 21 16 10 14 18 13
26 22 19 19 17 17 14 11 10 6 6 2 3 2 8 4 5 6 10 12 12 12 12 11 10 15 17 16 16 17 15 19 20 21 18 19 18 17 23 21 17 12 16 18 13
26 22 16 15 14 15 17 13 6 4 6 1 2 8 8 4 3 4 9 11 11 11 12 13 11 13 14 14 15 17 18 18 17 17 12 12 16 16 22 12 8 12 16 16 13
26 23 16 15 12 13 19 13 9 1 6 13 5 11 7 5 4 4 6 9 12 12 14 18 13 15 18 20 21 21 23 22 17 13 13 13 14 14 18 12 15 15 14 13 19
26 23 16 12 8 9 9 13 9 7 10 9 5 8 3 4 7 10 6 9 13 14 16 14 17 17 18 20 20 22 22 22 16 19 11 8 13 15 16 14 18 15 17 18 19
26 23 16 8 6 5 7 13 10 7 7 9 2 4 2 4 4 4 12 12 14 16 17 18 19 20 21 19 21 21 16 16 17 19 19 16 14 18 20 21 16 15 11 12 10
26 24 17 9 6 7 8 12 10 6 5 10 8 4 6 4 7 3 6 12 16 20 20 19 21 22 22 15 16 21 15 19 19 18 15 13 14 18 20 17 14 14 11 8 9
25 24 15 10 6 8 12 12 9 4 4 3 5 3 6 5 7 8 4 10 16 18 17 21 21 21 24 23 18 20 17 17 20 16 17 22 13 16 15 18 18 13 11 12 13
24 23 14 3 9 8 16 12 6 6 2 7 2 4 9 6 2 6 14 11 15 17 19 22 30 24 24 23 20 15 19 17 17 14 14 20 19 17 14 15 19 20 16 13 16
23 21 10 6 3 14 13 8 6 7 4 4 3 7 10 13 5 12 8 12 12 14 16 18 22 24 26 16 16 11 9 10 14 14 15 17 18 15 3 5 23 20 20 15 14
23 17 4 7 6 13 8 8 9 3 5 6 6 12 13 6 9 9 8 14 14 13 11 15 19 15 13 17 18 14 13 12 17 14 14 8 8 4 16 21 28 22 18 17 16
23 8 7 6 11 9 9 7 6 9 7 10 13 13 11 4 6 7 16 11 11 9 6 11 16 17 4 4 16 14 16 14 9 15 14 15 6 11 10 12 12 18 17 13 14
23 9 6 5 10 4 7 13 3 6 9 8 11 5 9 11 13 11 10 12 8 9 11 11 18 21 16 13 17 17 16 10 6 5 12 16 9 6 8 16 14 25 11 11 7
12 7 2 9 6 11 9 6 4 7 7 6 11 12 13 13 12 10 12 11 12 10 14 14 14 21 9 10 11 12 15 16 13 7 5 11 4 2 14 11 11 19 21 20 5
6 6 6 7 10 6 4 5 4 6 3 4 5 8 8 9 11 12 13 6 9 12 12 11 9 13 21 12 14 16 12 4 5 11 5 6 5 5 10 14 19 13 6 8 9
10 12 4 7 5 6 5 5 2 5 4 5 7 6 7 9 7 8 7 7 7 9 9 10 5 8 12 15 1 7 11 17 13 7 13 4 1 4 6 14 12 17 18 17 5
8 4 1 4 2 7 9 9 4 7 5 5 9 9 8 10 11 10 11 4 6 6 6 3 8 12 12 6 3 9 16 16 10 11 14 12 10 10 10 10 4 2 3 3 4
5 6 4 6 9 10 9 11 9 8 6 5 6 7 7 9 12 14 14 10 7 5 3 3 13 14 17 19 11 18 12 13 14 13 12 13 6 3 5 8 9 6 4 8 6
9 8 14 17 12 9 5 9 4 9 2 9 7 8 11 9 12 14 16 12 12 12 5 7 11 14 17 18 16 18 16 9 14 15 16 13 12 13 8 12 12 7 8 6 5
10 11 9 11 13 7 3 6 7 7 9 7 8 10 9 10 13 15 16 16 17 14 12 10 8 10 13 15 13 12 10 11 12 12 13 13 8 7 4 3 3 5 8 10 7
Wind_Direction
356 352 346 340 333 327 325 322 317 313 311 305 300 298 295 293 288 283 269 245 242 261 262 246 224 232 243 250 245 245 261 261 260 259 269 261 168 260 263 268 320 266 99 136 146
353 349 344 339 333 327 321 317 313 306 303 303 297 294 300 300 296 279 276 243 243 249 252 218 223 226 238 244 239 235 249 250 269 295 333 324 37 289 246 229 252 241 121 137 170
349 345 342 338 333 327 320 314 311 304 296 296 297 292 298 310 313 286 283 249 248 247 224 224 231 230 239 240 238 232 243 271 284 341 322 304 311 228 260 276 272 258 143 152 171
346 343 340 337 332 327 320 313 308 302 294 291 297 293 294 305 300 322 332 291 238 231 214 231 229 231 238 244 241 251 243 260 278 288 272 274 279 285 278 275 279 293 144 145 160
346 343 341 338 332 327 321 314 310 304 295 283 289 285 284 265 270 284 297 293 204 200 209 224 230 242 244 249 257 250 251 257 258 266 278 265 267 270 268 268 263 275 277 235 236
349 347 345 340 336 332 327 320 316 309 299 280 277 271 259 263 274 307 275 252 223 207 216 231 233 244 258 266 267 282 273 258 263 266 251 262 261 263 261 257 259 250 262 243 245
352 351 352 352 353 354 351 345 340 330 311 281 265 247 256 247 281 282 252 232 216 207 230 237 249 258 269 270 273 267 273 273 250 258 243 257 258 253 257 251 236 229 237 248 248
353 353 357 2 4 6 6 10 7 358 349 308 237 202 258 1 246 264 239 230 217 228 240 252 253 261 273 273 282 273 272 256 256 240 236 235 259 257 234 240 232 214 238 230 230
353 352 354 0 354 6 9 7 9 45 32 87 71 251 273 263 267 257 224 225 220 231 240 252 266 265 254 256 260 260 255 252 249 253 203 207 248 257 266 206 214 219 235 227 195
353 351 347 355 12 19 6 350 352 1 21 183 269 251 260 351 342 301 216 217 217 232 231 235 247 242 239 250 242 251 245 235 254 260 191 224 239 258 280 173 192 230 247 232 132
351 350 343 350 8 19 18 356 347 233 244 279 294 285 292 287 262 247 210 213 214 222 233 231 240 240 236 237 252 268 278 287 293 239 183 217 258 240 251 196 209 213 233 229 117
347 348 342 348 20 22 19 11 357 321 303 272 251 275 320 303 289 226 186 220 216 235 220 246 238 251 256 257 253 254 257 271 281 287 283 230 244 264 265 233 216 221 226 212 119
345 346 343 343 5 10 356 360 340 319 271 205 241 281 298 275 307 282 194 219 249 235 253 252 253 246 235 250 267 253 272 270 267 270 264 248 261 258 252 241 232 202 49 115 107
342 342 339 341 353 335 330 346 340 319 270 149 189 145 212 268 233 202 251 253 255 254 263 253 262 262 270 249 260 268 241 260 263 274 263 207 251 243 236 211 205 152 149 135 126
340 337 336 333 348 358 342 333 326 304 242 94 101 329 288 266 350 222 220 271 265 270 248 259 266 257 263 259 253 259 274 264 264 243 267 271 257 269 236 209 169 174 179 147 136
339 333 331 330 299 323 327 319 312 238 185 138 324 354 304 221 259 288 287 227 272 281 261 271 276 271 269 265 252 256 262 255 262 272 241 248 261 266 243 214 162 161 147 151 128
338 331 321 268 267 328 323 309 247 256 160 92 353 312 307 283 287 288 310 301 275 269 254 262 250 255 255 260 256 239 242 253 249 239 249 245 246 252 27 237 169 142 146 140 140
339 329 286 335 312 315 319 263 261 79 32 32 310 303 285 329 314 342 289 293 283 303 282 299 295 338 1 274 230 226 230 237 253 260 261 282 329 344 52 86 113 123 146 148 154
340 336 311 287 309 302 279 252 352 16 17 338 312 267 284 183 200 304 301 285 336 47 322 314 294 347 241 221 308 272 258 240 272 292 280 270 139 94 69 70 94 118 137 139 116
342 350 256 277 313 276 253 261 24 37 355 325 303 313 315 330 324 319 318 353 340 38 351 313 305 306 287 203 242 284 306 276 148 244 266 272 166 216 325 351 16 11 100 115 131
348 292 110 331 297 260 255 36 356 65 353 335 333 320 315 315 315 311 312 324 32 345 329 310 287 281 287 254 271 240 220 241 262 147 252 278 296 33 169 167 60 33 26 359 34
332 283 355 337 279 229 354 19 5 298 310 294 308 293 303 325 314 303 295 0 39 346 309 338 300 290 288 233 207 299 314 176 291 264 5 308 301 350 103 124 128 156 146 13 11
319 289 303 345 300 346 76 293 276 309 320 321 306 301 320 305 305 311 326 321 10 337 25 353 316 305 297 266 37 325 287 270 290 242 224 233 172 31 176 176 169 166 166 189 162
311 309 73 335 109 345 353 294 288 161 294 287 292 309 285 280 270 260 262 282 157 256 126 349 276 278 284 273 189 277 312 315 261 237 263 257 292 137 227 240 197 294 282 287 11
297 19 12 312 346 334 307 307 290 289 170 279 287 243 272 304 306 297 311 326 265 94 250 235 270 283 287 287 229 234 240 257 279 281 275 280 292 303 248 243 231 195 254 285 297
340 350 336 295 281 303 273 289 312 310 280 288 258 288 303 291 285 300 316 315 313 310 281 321 286 283 288 288 271 287 272 267 275 272 273 280 287 121 243 192 172 224 270 269 313
342 319 288 298 287 262 313 335 323 333 287 281 319 311 300 328 336 312 305 295 287 290 282 268 290 291 283 286 317 275 293 306 280 255 271 261 268 23 21 60 328 357 344 314 332